Weather in Osakarovka

Kazakhstan     50°33′53″N   72°34′06″E
temp.,
°C
wind,
m/s
gust,
m/s
humid.,
%
clouds,
%
prec.,
mm/h
press.,
hPa
HPBL,
m
24 june, thu
thu2400:00+7nnw22895 0.2 101226
03:00+6wnw39955 0.0 1012259
06:00+6wnw410945 0.0 1013372
09:00+10nnw697394 0.1 10131116
12:00+12nnw6960100 0.2 10131806
15:00+13nnw7851100 0.0 10131919
18:00+13nnw575550 0.0 10141119
21:00+10nw33689 0.0 101628
25 june, fri
fri2500:00+8wnw117599 0.0 101610
03:00+10wsw2267100 0.0 101514
06:00+10sw3470100 0.0 101586
09:00+11sw4767100 0.0 1015360
12:00+14wsw576097 0.1 10131290
15:00+14wnw466280 0.4 10131015
18:00+15n775374 0.5 10131352
21:00+12nne337037 0.0 101335
26 june, sat
sat2600:00+9e337784 0.0 101427
03:00+9se337995 0.0 101435
06:00+9se227452 0.0 101433
09:00+14e22515 0.0 1015596
12:00+17e23405 0.0 10151680
15:00+19n113621 0.0 10142149
18:00+20n113527 0.0 10141916
21:00+16nne115126 0.0 101511
27 june, sun
sun2700:00+14se455650 0.0 101663
03:00+12sse496289 0.0 1015138
06:00+12sse5106294 0.0 1016158
09:00+17s6848100 0.0 1015373
12:00+20s4642100 0.0 1013594
15:00+17ssw4869100 0.1 1014388
18:00+19s68591 0.1 1012739
21:00+17se487365 0.0 1011207
28 june, mon
mon2800:00+15se498043 0.0 1010179
03:00+14ese358498 0.0 100984
06:00+14e228191 0.0 100925
09:00+18n2366100 0.0 1009267
12:00+19nnw6770100 0.8 1010538
15:00+18ne337588 0.8 1010273
18:00+21ne556016 0.9 1009820
21:00+17ne34740 0.1 101062